Hourly Data Report for April 22, 2020

MIRAMICHI RCS
NEW BRUNSWICK
Current Station Operator: ECCC - MSC

47°00'34.000" N
65°27'54.000" W
33.00 m
8100989
71744
ACQ

Download Data

Hourly Data (April 2020)
Hourly Data Report for April 22, 2020
TIME
LST
Temp Definition
°C
Dew Point Definition
°C
Rel Hum Definition
%
Precip. Amount Definition
mm

Wind Dir Definition
10's deg

Wind Spd Definition
km/h
Visibility Definition
km
Stn Press Definition
kPa
Hmdx Definition


Wind Chill Definition


Weather Definition


00:00 4.7 -10.5 32 LegendMM 17 5   99.46     LegendNANA
01:00 3.1 -8.4 42 LegendMM 10 8   99.38     LegendNANA
02:00 3.2 -5.6 52 LegendMM 18 14   99.24     LegendNANA
03:00 0.6 -0.8 90 LegendMM 12 8   99.02     LegendNANA
04:00 0.1 -0.4 97 LegendMM 9 19   98.80     LegendNANA
05:00 0.8 -0.2 93 LegendMM 13 20   98.62     LegendNANA
06:00 1.2 -0.3 90 LegendMM 14 17   98.56     LegendNANA
07:00 2.5 1.6 94 LegendMM 14 21   98.51     LegendNANA
08:00 2.8 1.0 88 LegendMM 22 28   98.56     LegendNANA
09:00 3.7 -0.4 75 LegendMM 22 35   98.61     LegendNANA
10:00 4.1 -1.4 67 LegendMM 23 36   98.66     LegendNANA
11:00 4.8 -2.5 59 LegendMM 23 35   98.69     LegendNANA
12:00 3.1 -1.8 71 LegendMM 26 21   98.76     LegendNANA
13:00 4.4 -3.4 57 LegendMM 23 35   98.78     LegendNANA
14:00 4.4 -5.5 49 LegendMM 26 31   98.80     LegendNANA
15:00 4.8 -6.0 45 LegendMM 23 28   98.81     LegendNANA
16:00 1.6 -3.7 68 LegendMM 28 20   98.91     LegendNANA
17:00 0.7 -2.9 77 LegendMM 28 8   98.98     LegendNANA
18:00 1.9 -5.9 57 LegendMM 26 25   99.06     LegendNANA
19:00 0.4 -7.6 55 LegendMM 26 22   99.17     LegendNANA
20:00 -1.4 -10.1 52 LegendMM 27 24   99.32   -8 LegendNANA
21:00 -2.2 -10.2 54 LegendMM 25 19   99.41   -8 LegendNANA
22:00 -2.4 -9.8 57 LegendMM 26 22   99.44   -9 LegendNANA
23:00 -2.9 -9.6 60 LegendMM 26 21   99.47   -9 LegendNANA

Notes on Data Quality.

Legend

  • E = Estimated
  • M = Missing
  • NA = Not Available*
  • [empty] = Indicates an unobserved value
Date modified: